Wind_Speed
25 28 30 33 35 36 39 40 40 40 38 38 37 38 37 38 39 40 41 42 43 45 46 45 46 46 47 47 48 49 51 52 52 52 52 51 51 50 48 46 45 44 44
30 32 34 36 36 35 35 35 35 35 36 36 37 39 39 40 41 43 44 45 47 49 51 51 51 52 52 53 53 53 54 55 55 54 53 53 53 52 51 50 48 47 47
34 35 36 35 35 34 34 34 34 35 36 38 39 41 42 44 47 48 50 51 51 52 53 54 55 55 55 55 56 57 58 58 59 59 58 57 57 56 55 55 53 51 50
37 37 36 35 34 35 35 36 38 39 41 42 43 45 47 48 50 51 52 53 54 54 54 54 56 57 57 56 56 56 57 58 59 60 61 61 61 61 60 59 58 57 56
37 35 35 34 35 37 38 40 42 44 46 47 48 49 50 50 50 51 52 55 57 59 60 60 60 60 61 61 60 59 59 60 60 61 61 61 60 61 61 62 61 60 59
35 35 35 36 38 40 42 44 46 48 50 50 50 50 50 52 54 56 58 61 63 65 67 68 67 66 66 67 69 69 69 69 68 67 66 65 63 61 60 61 61 61 60
35 37 39 40 42 44 46 48 48 48 49 51 53 54 56 59 61 65 67 69 70 72 74 74 76 76 77 77 77 77 77 77 75 74 73 70 66 64 62 61 62 61 61
38 40 41 42 44 46 47 47 48 49 50 53 57 60 62 64 66 70 73 75 77 78 79 79 80 82 83 84 84 84 83 83 82 80 78 77 73 69 66 64 63 62 62
39 40 42 44 44 45 46 48 49 52 54 58 62 66 70 73 75 75 78 80 83 84 85 85 85 87 89 90 90 90 90 91 88 87 85 84 80 77 72 68 67 66 65
41 42 43 44 45 47 49 52 55 58 61 65 69 73 76 80 83 85 87 90 92 93 93 93 93 93 95 96 96 95 94 94 92 91 89 85 81 77 71 71 71 70 68
41 43 45 46 49 51 54 58 62 66 69 72 75 79 82 84 87 91 93 96 98 99 98 98 99 99 100 100 100 99 98 95 92 89 87 81 73 71 69 72 73 72 71
43 46 48 51 54 56 60 64 67 70 72 75 79 83 86 89 92 94 96 98 99 100 101 100 101 103 104 104 101 98 97 91 86 83 83 82 73 75 78 74 76 75 69
46 50 53 55 58 60 63 66 68 71 75 79 83 86 88 91 95 98 101 102 104 105 106 105 104 103 104 103 98 91 84 79 80 78 78 82 81 82 83 80 77 76 79
51 53 56 59 61 63 65 68 72 76 80 83 86 89 92 95 98 100 102 105 106 107 106 102 99 96 94 91 86 81 74 70 73 75 78 80 82 82 83 89 88 80 75
53 57 60 62 64 66 69 73 77 80 83 87 91 93 95 97 97 97 98 99 100 103 101 92 89 86 87 85 81 78 72 68 70 70 71 77 82 83 83 82 91 92 83
59 62 64 66 68 71 74 78 81 84 88 91 95 97 97 97 97 97 97 96 96 98 97 86 82 81 84 86 85 80 75 70 68 68 66 68 72 78 82 84 84 87 94
64 66 67 69 72 76 79 81 85 88 92 94 96 98 99 98 97 97 95 94 92 90 89 81 77 72 73 78 83 84 80 75 69 67 67 68 67 68 75 77 80 84 86
67 68 71 74 77 80 83 86 89 92 94 96 97 98 96 96 97 96 93 89 84 80 78 75 72 69 66 66 69 75 79 79 74 68 67 65 62 60 61 64 65 69 74
69 71 74 77 80 83 86 89 92 94 96 97 96 95 95 95 94 92 86 81 76 72 70 75 73 70 68 65 66 65 68 75 76 72 69 68 65 62 61 60 58 58 61
71 74 77 80 83 86 89 92 95 97 97 95 94 94 92 91 91 86 79 73 70 69 71 74 69 67 66 63 63 62 60 63 72 76 73 72 71 70 68 67 65 65 66
74 77 79 82 86 88 92 95 97 98 95 93 91 88 88 89 87 80 74 70 69 69 71 68 67 65 62 61 59 56 53 50 57 70 79 76 74 73 72 73 74 74 75
76 79 82 86 89 91 94 96 97 94 90 88 87 85 87 87 81 74 70 68 66 67 65 65 65 62 57 57 55 51 46 42 41 48 64 74 77 75 75 78 80 79 75
79 82 86 89 91 93 95 95 93 86 84 85 85 85 86 83 75 69 65 62 61 61 60 63 64 60 57 54 52 45 40 37 31 29 39 46 54 59 61 59 56 53 53
82 85 88 90 93 94 94 90 83 80 82 83 84 85 84 77 72 66 62 58 56 56 58 60 59 58 55 51 46 40 33 25 19 18 23 25 31 34 35 36 38 40 44
85 88 92 94 94 92 89 83 79 80 80 80 83 84 79 72 67 61 58 55 54 54 55 55 51 51 49 45 39 30 22 12 6 7 13 15 18 22 27 30 34 36 38
88 92 95 95 93 89 84 79 78 78 78 79 81 79 72 65 60 56 55 55 54 52 50 44 41 41 40 37 32 26 17 8 10 6 5 7 9 16 19 21 24 26 29
Wind_Direction
287 285 285 286 285 284 283 284 285 287 288 289 289 288 288 287 287 286 286 287 288 287 287 286 285 284 283 282 281 280 279 277 276 277 277 276 275 275 274 273 273 273 274
288 287 287 288 289 287 287 288 289 290 289 289 289 290 291 290 289 288 288 288 288 288 288 287 286 285 284 283 282 281 281 281 281 280 279 278 277 276 275 274 273 273 272
294 293 291 291 291 292 292 292 292 291 290 290 290 291 291 291 291 291 291 291 290 290 290 290 289 287 286 285 284 283 281 281 280 280 279 277 276 275 274 273 272 270 268
296 294 292 292 292 292 291 292 291 292 292 292 292 292 292 293 294 294 294 294 294 294 292 290 289 288 286 284 282 281 281 281 280 279 278 277 277 276 275 274 273 271 269
295 293 292 291 289 289 291 293 294 295 296 296 296 296 296 296 296 296 295 296 295 294 292 290 288 286 286 285 284 283 283 282 281 279 278 277 275 274 274 274 273 272 270
296 296 295 294 294 296 297 297 298 298 298 297 297 297 297 296 296 296 296 296 295 294 292 290 288 286 284 284 284 284 284 282 280 278 277 275 274 271 269 269 268 268 267
299 300 302 302 302 301 301 302 302 301 301 300 299 298 297 296 295 294 294 293 293 292 290 289 287 286 285 284 284 283 283 282 281 279 277 274 271 268 266 265 264 263 264
302 304 304 304 305 305 305 304 304 303 302 303 302 301 299 296 294 294 294 293 293 292 290 288 287 286 285 284 283 282 282 280 279 277 276 274 272 269 265 264 264 262 261
302 303 303 304 304 303 303 302 302 301 301 302 302 302 301 300 298 295 295 294 294 293 291 288 286 284 283 282 280 280 279 277 275 274 273 271 270 268 266 263 262 261 260
301 301 301 301 300 300 301 302 304 306 305 305 305 305 303 302 301 300 299 298 298 296 293 291 288 286 283 281 279 276 274 272 271 270 269 269 269 267 264 262 261 260 258
295 296 298 300 302 304 306 309 310 309 308 307 306 305 304 302 301 300 300 299 297 296 294 292 289 287 285 282 280 277 274 271 268 264 262 260 261 260 258 258 258 257 255
298 301 304 306 307 308 309 310 310 308 308 307 306 304 303 302 302 300 299 298 296 296 294 293 291 288 285 282 279 276 274 271 266 260 254 252 250 249 250 253 251 249 247
302 306 308 308 309 309 309 309 308 307 307 307 306 305 304 304 304 303 303 302 301 300 298 296 293 290 286 283 282 280 277 271 264 257 250 247 246 246 244 242 247 245 242
305 307 307 308 308 307 307 308 309 308 308 308 307 307 308 308 307 307 305 304 303 301 298 297 293 291 289 288 287 284 279 272 265 259 251 248 246 243 243 241 244 243 240
306 307 307 306 307 308 309 310 309 309 309 309 310 311 310 310 308 305 303 302 300 299 298 298 294 291 290 289 286 284 281 273 266 262 257 252 248 244 241 241 242 242 238
307 307 307 307 309 309 309 310 310 310 311 312 312 312 311 309 307 305 304 302 301 299 298 299 294 291 286 282 280 279 276 271 265 260 258 255 252 248 247 244 243 241 240
307 307 307 308 309 308 309 310 311 312 312 313 312 312 310 308 307 306 306 304 303 301 300 301 299 296 290 283 277 272 269 267 262 258 254 253 251 249 247 247 248 246 245
306 307 308 308 308 309 310 312 312 312 313 313 313 312 310 309 309 309 308 306 304 302 302 303 304 303 301 296 287 277 269 263 259 255 251 249 246 245 246 248 250 251 253
307 308 308 308 309 311 312 312 313 314 314 313 313 311 311 311 311 311 309 307 304 302 302 303 304 304 303 301 294 285 275 263 256 252 249 247 245 244 245 247 249 253 256
308 309 309 310 311 313 314 315 316 316 315 313 312 311 312 313 314 312 310 307 304 303 302 303 303 305 306 304 299 294 280 266 255 249 248 247 247 249 250 251 251 253 254
309 309 310 311 313 315 316 317 316 315 314 312 310 311 313 315 315 313 310 308 306 305 305 304 304 305 307 306 302 299 292 272 257 249 246 246 249 252 253 255 258 260 261
310 311 313 314 316 317 318 317 316 314 312 311 312 313 316 317 316 313 310 307 307 308 308 307 308 305 305 305 304 302 299 285 265 254 250 247 249 253 256 259 262 263 260
313 314 315 317 318 318 318 317 314 311 313 313 314 317 318 318 316 312 310 309 309 311 309 309 310 307 306 306 305 305 302 296 285 263 251 247 250 254 257 261 261 257 248
315 316 316 317 317 318 318 315 312 314 314 315 317 319 319 319 315 312 310 310 310 312 311 312 310 307 307 307 306 307 305 300 285 265 255 248 248 254 258 257 255 251 243
316 316 316 316 317 317 315 314 314 315 315 318 320 321 321 319 317 314 312 312 312 313 314 314 310 308 308 309 309 310 309 298 249 241 262 263 255 257 258 258 255 249 241
318 317 317 317 316 316 315 314 314 316 319 321 322 322 322 321 319 316 315 314 314 315 316 315 310 309 309 309 309 309 303 234 186 171 261 264 266 273 265 260 256 246 232
Height
5807 5804 5802 5799 5796 5793 5791 5787 5783 5780 5778 5775 5772 5769 5766 5764 5761 5759 5758 5755 5751 5747 5745 5742 5739 5737 5734 5732 5730 5727 5725 5723 5721 5720 5718 5716 5714 5712 5712 5712 5712 5712 5712
5801 5798 5795 5792 5789 5785 5781 5778 5776 5774 5771 5767 5764 5761 5758 5756 5753 5751 5749 5747 5743 5739 5735 5732 5730 5726 5723 5720 5717 5715 5713 5710 5708 5707 5705 5703 5701 5700 5700 5700 5700 5700 5699
5794 5790 5788 5784 5780 5777 5774 5771 5768 5766 5763 5759 5757 5754 5750 5747 5744 5741 5738 5735 5732 5729 5726 5721 5717 5714 5711 5708 5705 5702 5699 5697 5694 5692 5690 5689 5687 5687 5686 5685 5685 5685 5685
5786 5783 5780 5777 5773 5770 5767 5764 5760 5757 5754 5750 5748 5745 5742 5739 5735 5731 5727 5724 5721 5718 5715 5711 5706 5701 5698 5695 5691 5688 5685 5682 5680 5678 5676 5674 5673 5673 5672 5672 5671 5671 5670
5778 5775 5773 5770 5767 5764 5760 5756 5752 5748 5744 5741 5738 5735 5732 5728 5725 5721 5717 5713 5709 5705 5701 5697 5694 5689 5684 5679 5676 5673 5671 5668 5665 5662 5659 5658 5657 5657 5657 5656 5656 5656 5656
5771 5768 5766 5763 5760 5756 5753 5748 5744 5740 5736 5732 5729 5726 5722 5718 5714 5710 5706 5702 5697 5691 5686 5682 5677 5673 5669 5664 5660 5656 5653 5651 5648 5644 5641 5640 5639 5639 5640 5640 5640 5639 5640
5764 5761 5758 5755 5752 5748 5743 5739 5735 5731 5726 5721 5717 5715 5711 5706 5702 5696 5691 5686 5681 5676 5670 5665 5659 5654 5649 5645 5641 5637 5633 5629 5628 5625 5623 5622 5622 5622 5621 5622 5624 5624 5624
5757 5753 5750 5747 5743 5738 5734 5729 5724 5720 5715 5709 5703 5698 5695 5694 5688 5680 5674 5668 5662 5658 5653 5647 5641 5634 5627 5622 5619 5614 5610 5604 5603 5603 5602 5601 5601 5602 5602 5603 5605 5606 5607
5749 5746 5741 5737 5733 5728 5724 5719 5713 5708 5703 5696 5689 5682 5675 5670 5667 5662 5656 5649 5642 5636 5631 5626 5620 5614 5606 5600 5595 5592 5587 5577 5574 5574 5576 5576 5577 5580 5582 5583 5585 5586 5587
5740 5736 5732 5727 5723 5718 5713 5707 5700 5693 5686 5679 5672 5665 5658 5648 5640 5636 5629 5620 5614 5607 5602 5597 5592 5586 5577 5569 5565 5562 5558 5552 5550 5548 5547 5550 5554 5558 5559 5560 5562 5564 5565
5731 5727 5723 5718 5712 5706 5700 5692 5685 5677 5669 5661 5653 5644 5635 5627 5618 5612 5609 5597 5588 5579 5573 5568 5561 5554 5545 5536 5530 5526 5522 5520 5519 5518 5519 5522 5527 5532 5533 5535 5539 5542 5543
5722 5717 5712 5707 5701 5694 5687 5678 5670 5662 5653 5644 5634 5624 5614 5604 5593 5584 5580 5574 5564 5556 5546 5541 5531 5520 5510 5502 5497 5489 5487 5486 5484 5485 5486 5490 5494 5500 5505 5508 5511 5516 5520
5712 5706 5701 5694 5688 5681 5673 5664 5656 5646 5636 5625 5615 5604 5592 5581 5569 5556 5545 5538 5530 5524 5516 5511 5496 5482 5470 5464 5461 5455 5456 5455 5454 5453 5456 5461 5466 5471 5478 5481 5480 5488 5495
5702 5695 5689 5682 5675 5667 5659 5649 5639 5628 5617 5605 5593 5580 5568 5554 5540 5526 5511 5497 5487 5483 5482 5483 5466 5452 5437 5432 5429 5424 5425 5427 5426 5427 5430 5431 5436 5443 5450 5455 5455 5461 5468
5690 5683 5676 5668 5660 5651 5641 5630 5619 5608 5595 5582 5569 5556 5542 5529 5515 5501 5486 5471 5452 5438 5437 5449 5436 5428 5413 5407 5403 5399 5399 5400 5401 5402 5403 5405 5407 5412 5421 5427 5431 5435 5443
5676 5668 5661 5652 5643 5633 5623 5612 5600 5587 5574 5560 5546 5533 5519 5505 5491 5475 5460 5445 5429 5408 5397 5410 5404 5400 5390 5380 5376 5372 5371 5372 5375 5378 5380 5379 5381 5388 5392 5398 5403 5409 5417
5662 5654 5645 5636 5626 5616 5605 5593 5580 5566 5554 5541 5526 5511 5495 5478 5463 5448 5433 5419 5405 5388 5369 5374 5366 5367 5357 5348 5343 5340 5341 5343 5348 5353 5355 5356 5360 5364 5370 5375 5379 5384 5390
5647 5638 5629 5619 5608 5597 5585 5573 5561 5548 5534 5520 5504 5486 5468 5452 5438 5424 5409 5395 5381 5367 5351 5345 5344 5338 5331 5322 5312 5307 5308 5312 5319 5326 5330 5334 5338 5343 5347 5353 5359 5364 5368
5632 5622 5612 5602 5590 5577 5566 5555 5542 5528 5513 5497 5478 5460 5444 5429 5416 5401 5386 5372 5359 5348 5338 5326 5320 5313 5307 5299 5287 5280 5277 5279 5286 5296 5304 5310 5314 5319 5325 5332 5339 5345 5349
5616 5606 5595 5583 5571 5559 5548 5535 5521 5508 5491 5472 5454 5438 5423 5409 5394 5379 5366 5351 5339 5330 5321 5308 5298 5292 5284 5277 5264 5255 5249 5249 5254 5265 5275 5282 5290 5295 5302 5310 5317 5324 5330
5600 5589 5578 5566 5554 5541 5527 5514 5501 5486 5467 5451 5436 5420 5405 5389 5373 5358 5345 5333 5321 5312 5301 5289 5281 5273 5265 5256 5247 5237 5228 5226 5229 5237 5245 5255 5266 5273 5280 5285 5291 5297 5304
5584 5573 5561 5549 5536 5523 5509 5495 5479 5463 5447 5431 5417 5402 5387 5370 5355 5342 5329 5317 5307 5295 5283 5272 5264 5255 5248 5239 5230 5222 5215 5210 5212 5218 5220 5234 5242 5249 5255 5259 5263 5267 5273
5569 5557 5545 5531 5518 5504 5490 5476 5460 5443 5427 5411 5396 5383 5368 5351 5336 5325 5315 5305 5295 5282 5269 5258 5246 5237 5231 5224 5215 5210 5204 5199 5199 5201 5205 5214 5221 5228 5231 5235 5239 5241 5247
5554 5541 5528 5514 5501 5485 5470 5455 5440 5425 5410 5394 5379 5363 5347 5333 5318 5307 5299 5291 5282 5271 5259 5246 5233 5222 5216 5210 5203 5198 5194 5192 5192 5193 5196 5203 5207 5212 5216 5219 5221 5225 5230
5538 5524 5510 5497 5483 5467 5450 5435 5421 5409 5395 5380 5364 5347 5330 5316 5303 5291 5282 5275 5268 5259 5248 5235 5223 5213 5205 5199 5194 5191 5189 5188 5188 5191 5193 5195 5199 5202 5205 5207 5209 5213 5219
5520 5506 5491 5477 5462 5448 5433 5419 5404 5391 5379 5366 5350 5333 5316 5301 5289 5278 5268 5259 5252 5246 5237 5228 5217 5206 5198 5193 5188 5186 5186 5186 5186 5188 5190 5192 5194 5196 5198 5200 5201 5204 5212